TimeCST,TemperatureF,Dew PointF,Humidity,Sea Level PressureIn,VisibilityMPH,Wind Direction,Wind SpeedMPH,Gust SpeedMPH,PrecipitationIn,Events,Conditions,WindDirDegrees,DateUTC
12:56 AM,21.9,9.0,58,30.40,-9999.0,Calm,Calm,-,N/A,,Unknown,0,2013-03-07 06:56:00
1:56 AM,21.0,9.0,60,30.41,-9999.0,Calm,Calm,-,N/A,,Unknown,0,2013-03-07 07:56:00
2:56 AM,19.9,9.0,62,30.42,-9999.0,Calm,Calm,-,N/A,,Unknown,0,2013-03-07 08:56:00
3:56 AM,19.9,9.0,62,30.43,-9999.0,Calm,Calm,-,N/A,,Unknown,0,2013-03-07 09:56:00
4:56 AM,19.0,9.0,65,30.46,-9999.0,Calm,Calm,-,N/A,,Unknown,0,2013-03-07 10:56:00
5:56 AM,17.1,7.0,65,30.46,-9999.0,NNW,3.5,-,N/A,,Unknown,340,2013-03-07 11:56:00
6:56 AM,14.0,7.0,74,30.47,-9999.0,North,3.5,-,N/A,,Unknown,350,2013-03-07 12:56:00
7:56 AM,19.0,8.1,62,30.49,-9999.0,East,4.6,-,N/A,,Unknown,80,2013-03-07 13:56:00
8:56 AM,19.9,9.0,62,30.47,-9999.0,Variable,5.8,-,N/A,,Unknown,0,2013-03-07 14:56:00
9:56 AM,21.9,10.9,63,30.48,-9999.0,East,5.8,-,N/A,,Unknown,100,2013-03-07 15:56:00
10:56 AM,23.0,12.0,63,30.50,-9999.0,East,5.8,-,N/A,,Unknown,100,2013-03-07 16:56:00
11:56 AM,24.1,12.9,62,30.50,-9999.0,East,5.8,-,N/A,,Unknown,90,2013-03-07 17:56:00
12:56 PM,23.0,12.9,65,30.50,-9999.0,ESE,4.6,-,N/A,,Unknown,110,2013-03-07 18:56:00
1:56 PM,25.0,14.0,63,30.48,-9999.0,SE,3.5,-,N/A,,Unknown,130,2013-03-07 19:56:00
2:56 PM,24.1,12.9,62,30.48,-9999.0,Calm,Calm,-,N/A,,Unknown,0,2013-03-07 20:56:00
3:56 PM,24.1,12.9,62,30.47,-9999.0,Calm,Calm,-,N/A,,Unknown,0,2013-03-07 21:56:00
4:56 PM,23.0,12.9,65,30.47,-9999.0,Variable,3.5,-,N/A,,Unknown,0,2013-03-07 22:56:00
5:56 PM,21.9,12.9,68,30.47,-9999.0,ENE,5.8,-,N/A,,Unknown,70,2013-03-07 23:56:00
6:56 PM,18.0,10.9,74,30.48,-9999.0,Calm,Calm,-,N/A,,Unknown,0,2013-03-08 00:56:00
7:56 PM,16.0,10.0,77,30.47,-9999.0,North,3.5,-,N/A,,Unknown,360,2013-03-08 01:56:00
8:56 PM,17.1,10.9,77,30.46,-9999.0,NNE,3.5,-,N/A,,Unknown,20,2013-03-08 02:56:00
9:56 PM,19.9,15.1,81,30.45,-9999.0,NNE,4.6,-,N/A,,Unknown,30,2013-03-08 03:56:00
10:56 PM,23.0,16.0,74,30.45,-9999.0,NE,5.8,-,N/A,,Unknown,40,2013-03-08 04:56:00
11:56 PM,24.1,18.0,77,30.44,-9999.0,NE,4.6,-,N/A,,Unknown,40,2013-03-08 05:56:00